FW6490 Weather Reports


Display with metric or nautical units.
time (UTC)temp
F
wind
direction
speed
MPH
gust
MPH
rain 1hr
in
rain 24hr
in
rain mn
in
humidity
%
barometer
mb
20260510152536 53 98 1.0 5.0 0.00 0.00 0.00 96 1008.6
20260510152035 53 74 1.0 5.0 0.00 0.00 0.00 96 1008.6
20260510151534 52 88 0.0 5.0 0.00 0.00 0.00 96 1008.6
20260510151030 52 142 0.0 3.0 0.00 0.00 0.00 96 1008.4
20260510150529 52 231 0.0 3.0 0.00 0.00 0.00 96 1008.4
20260510150021 52 231 0.0 0.0 0.00 0.00 0.00 96 1008.4
20260510145521 52 232 0.0 0.0 0.00 0.00 0.00 96 1008.4
20260510145016 52 234 0.0 0.0 0.00 0.00 0.00 96 1008.4
20260510144515 52 251 0.0 0.0 0.00 0.00 0.00 96 1008.4
20260510144014 52 251 0.0 0.0 0.00 0.00 0.00 96 1008.4
20260510143512 52 251 0.0 1.0 0.00 0.00 0.00 96 1008.4
20260510143006 52 251 0.0 1.0 0.00 0.00 0.00 96 1008.4
20260510142005 51 162 0.0 3.0 0.00 0.00 0.00 96 1008.4
20260510141505 51 291 0.0 3.0 0.00 0.00 0.00 96 1008.4
20260510141006 51 292 0.0 1.0 0.00 0.00 0.00 96 1008.1
20260510140459 51 292 0.0 2.0 0.00 0.00 0.00 96 1008.1
20260510135455 51 276 1.0 2.0 0.00 0.00 0.00 95 1007.9
20260510133946 51 276 0.0 2.0 0.00 0.00 0.00 96 1007.9
20260510133446 51 276 0.0 2.0 0.00 0.00 0.00 95 1007.9
20260510132446 51 276 0.0 2.0 0.00 0.00 0.00 95 1007.8
20260510131940 50 276 1.0 3.0 0.00 0.00 0.00 95 1007.8
20260510130937 51 304 0.0 3.0 0.00 0.00 0.00 95 1007.8
20260510130437 51 304 0.0 2.0 0.00 0.00 0.00 95 1007.8
20260510125935 51 304 0.0 2.0 0.00 0.00 0.00 95 1007.8
20260510124432 51 304 1.0 4.0 0.00 0.00 0.00 95 1007.8
20260510123926 51 304 1.0 3.0 0.00 0.00 0.00 95 1007.8
20260510123425 51 304 0.0 3.0 0.00 0.00 0.00 95 1007.8
20260510122426 51 304 0.0 2.0 0.00 0.00 0.00 95 1007.8
20260510121920 51 304 0.0 2.0 0.00 0.00 0.00 95 1007.8
20260510121419 51 304 0.0 3.0 0.00 0.00 0.00 95 1007.8
20260510120923 51 304 1.0 4.0 0.00 0.00 0.00 95 1007.7
20260510115416 50 304 1.0 3.0 0.00 0.00 0.00 95 1007.5
20260510113909 50 304 1.0 4.0 0.00 0.00 0.00 95 1007.5
20260510113408 50 304 1.0 4.0 0.00 0.00 0.00 95 1007.5
20260510112906 50 304 1.0 4.0 0.00 0.00 0.00 95 1007.7
20260510112407 50 304 1.0 4.0 0.00 0.00 0.00 95 1007.7
20260510111900 51 304 1.0 4.0 0.00 0.00 0.00 95 1007.7
20260510111358 51 304 2.0 4.0 0.00 0.00 0.00 95 1007.8
20260510110851 51 304 2.0 4.0 0.00 0.00 0.00 95 1007.8
20260510110350 51 304 2.0 6.0 0.00 0.00 0.00 95 1007.8
20260510105848 51 304 2.0 6.0 0.00 0.00 0.00 95 1007.8
20260510105344 51 307 2.0 5.0 0.00 0.00 0.00 95 1007.8
20260510104843 51 307 2.0 4.0 0.00 0.00 0.00 94 1007.8
20260510103839 51 307 1.0 4.0 0.00 0.00 0.00 94 1007.9
20260510103333 51 307 2.0 5.0 0.00 0.00 0.00 94 1007.9
20260510102828 51 307 1.0 5.0 0.00 0.00 0.00 94 1007.9
20260510102326 51 331 1.0 2.0 0.00 0.00 0.00 94 1007.9
20260510101824 51 331 0.0 2.0 0.00 0.00 0.00 94 1007.9
20260510101326 51 331 0.0 2.0 0.00 0.00 0.00 94 1007.9
20260510100821 51 331 0.0 2.0 0.00 0.00 0.00 94 1007.9
20260510100324 51 331 1.0 2.0 0.00 0.00 0.00 94 1007.9
20260510095822 51 331 0.0 2.0 0.00 0.00 0.00 94 1007.9
20260510095319 51 331 0.0 1.0 0.00 0.00 0.00 94 1007.9
20260510094818 51 331 0.0 2.0 0.00 0.00 0.00 94 1007.9
20260510094312 51 331 0.0 2.0 0.00 0.00 0.00 94 1007.9
20260510093813 51 331 0.0 2.0 0.00 0.00 0.00 94 1007.9
20260510093313 51 331 0.0 2.0 0.00 0.00 0.00 94 1007.9
20260510092815 51 331 0.0 2.0 0.00 0.00 0.00 94 1008.0
20260510092307 50 331 0.0 2.0 0.00 0.00 0.00 94 1008.0
20260510091804 50 331 0.0 0.0 0.00 0.00 0.00 94 1008.0
20260510090759 50 331 0.0 1.0 0.00 0.00 0.00 94 1008.0
20260510090259 50 331 0.0 0.0 0.00 0.00 0.00 94 1008.0
20260510085754 50 331 0.0 0.0 0.00 0.00 0.00 94 1008.0
20260510083749 49 331 0.0 0.0 0.00 0.00 0.00 94 1008.0
20260510082240 49 331 0.0 0.0 0.00 0.00 0.00 93 1008.0
20260510081742 49 331 0.0 0.0 0.00 0.00 0.00 93 1008.0
20260510080739 49 331 0.0 0.0 0.00 0.00 0.00 93 1008.1
20260510080235 49 331 0.0 0.0 0.00 0.00 0.00 93 1008.1
20260510075735 49 331 0.0 0.0 0.00 0.00 0.00 93 1008.2
20260510075232 49 331 0.0 0.0 0.00 0.00 0.00 93 1008.2
20260510074731 49 331 0.0 0.0 0.00 0.00 0.00 92 1008.2
20260510074225 49 331 0.0 0.0 0.00 0.00 0.00 93 1008.3
20260510073724 49 331 0.0 0.0 0.00 0.00 0.00 93 1008.3
20260510073224 49 331 0.0 0.0 0.00 0.00 0.00 92 1008.3
20260510072718 49 331 0.0 0.0 0.00 0.00 0.00 92 1008.3
20260510072216 49 331 0.0 0.0 0.00 0.00 0.00 92 1008.3
20260510070712 50 331 0.0 0.0 0.00 0.00 0.00 92 1008.3
20260510065709 50 331 0.0 0.0 0.00 0.00 0.00 92 1008.3
20260510065207 50 331 0.0 0.0 0.00 0.00 0.00 92 1008.3
20260510064706 50 331 0.0 0.0 0.00 0.00 0.00 92 1008.3
20260510064206 50 331 0.0 0.0 0.00 0.00 0.00 92 1008.3
20260510063706 50 331 0.0 0.0 0.00 0.00 0.00 92 1008.3
20260510063159 50 331 0.0 0.0 0.00 0.00 0.00 92 1008.3
20260510062702 50 331 0.0 0.0 0.00 0.00 0.00 92 1008.3
20260510062159 50 331 0.0 0.0 0.00 0.00 0.00 92 1008.3
20260510061657 51 331 0.0 0.0 0.00 0.00 0.00 91 1008.3
20260510061158 51 331 0.0 0.0 0.00 0.00 0.00 91 1008.4
20260510060655 51 331 0.0 0.0 0.00 0.00 0.00 91 1008.4
20260510060152 51 331 0.0 0.0 0.00 0.00 0.00 91 1008.4
20260510055654 51 331 0.0 0.0 0.00 0.00 0.00 91 1008.4
20260510054659 51 331 0.0 0.0 0.00 0.00 0.00 91 1008.4
20260510054153 51 331 0.0 0.0 0.00 0.00 0.00 91 1008.4
20260510053648 51 331 0.0 0.0 0.00 0.00 0.00 91 1008.4
20260510052644 52 331 0.0 0.0 0.00 0.00 0.00 91 1008.4
20260510052141 52 331 0.0 0.0 0.00 0.00 0.00 91 1008.4
20260510051640 52 331 0.0 1.0 0.00 0.00 0.00 91 1008.4
20260510050640 52 331 0.0 2.0 0.00 0.00 0.00 91 1008.4
20260510050139 53 331 1.0 3.0 0.00 0.00 0.00 90 1008.4
20260510045633 53 331 0.0 3.0 0.00 0.00 0.00 90 1008.4
20260510045130 53 331 0.0 2.0 0.00 0.00 0.00 90 1008.4
20260510044630 53 331 0.0 2.0 0.00 0.00 0.00 90 1008.4
20260510043630 53 331 0.0 2.0 0.00 0.00 0.00 90 1008.4
20260510042118 54 331 0.0 2.0 0.00 0.00 0.00 89 1008.4
20260510041617 54 331 0.0 2.0 0.00 0.00 0.00 89 1008.4
20260510040608 54 331 0.0 3.0 0.00 0.00 0.00 88 1008.4
20260510040110 54 331 0.0 3.0 0.00 0.00 0.00 88 1008.4
20260510035609 55 331 0.0 2.0 0.00 0.00 0.00 87 1008.4
20260510035106 55 331 0.0 2.0 0.00 0.00 0.00 87 1008.4
20260510034603 55 331 0.0 2.0 0.00 0.00 0.00 87 1008.4
20260510034106 55 331 0.0 3.0 0.00 0.00 0.00 87 1008.3
20260510033601 55 331 0.0 3.0 0.00 0.00 0.00 87 1008.3
20260510032051 56 331 2.0 6.0 0.00 0.00 0.00 86 1008.0
20260510031548 56 319 2.0 6.0 0.00 0.00 0.00 85 1008.0
20260510031047 56 319 1.0 4.0 0.00 0.00 0.00 85 1007.5
20260510030544 56 317 1.0 6.0 0.00 0.00 0.00 85 1007.5
20260510030043 56 317 1.0 6.0 0.00 0.00 0.00 85 1007.5
20260510025540 56 317 2.0 7.0 0.00 0.00 0.00 84 1007.5
20260510025042 57 317 3.0 7.0 0.00 0.00 0.00 84 1007.5
20260510023538 57 321 2.0 4.0 0.00 0.00 0.00 82 1007.5
20260510023037 58 321 3.0 5.0 0.00 0.00 0.00 82 1007.5
20260510022536 58 320 2.0 5.0 0.00 0.00 0.00 81 1007.4
20260510021535 59 321 3.0 6.0 0.00 0.00 0.00 80 1007.4
20260510021034 59 320 2.0 5.0 0.00 0.00 0.00 79 1007.4
20260510020531 60 320 2.0 6.0 0.00 0.00 0.00 78 1007.4
20260510020033 60 320 3.0 7.0 0.00 0.00 0.00 77 1007.4
20260510015529 60 323 3.0 7.0 0.00 0.00 0.00 77 1007.4
20260510015028 61 322 4.0 9.0 0.00 0.00 0.00 77 1007.4
20260510014021 61 313 4.0 11.0 0.00 0.00 0.00 77 1007.4
20260510013521 61 304 4.0 11.0 0.00 0.00 0.00 76 1007.4
20260510013017 61 342 4.0 11.0 0.00 0.00 0.00 76 1007.4
20260510012515 61 301 5.0 11.0 0.00 0.00 0.00 76 1007.4
20260510011513 61 314 5.0 9.0 0.00 0.00 0.00 75 1007.4
20260510011007 61 316 5.0 12.0 0.00 0.00 0.00 75 1007.4
20260510010510 62 318 5.0 12.0 0.00 0.00 0.00 74 1007.4
20260510010004 62 319 5.0 11.0 0.00 0.00 0.00 74 1007.4
20260510005500 62 288 6.0 10.0 0.00 0.00 0.00 73 1007.4
20260510003455 65 302 5.0 10.0 0.00 0.00 0.00 70 1007.4
20260510002954 65 324 4.0 10.0 0.00 0.00 0.00 68 1007.4
20260510002453 65 315 5.0 9.0 0.00 0.00 0.00 69 1007.3
20260510001454 65 318 6.0 15.0 0.00 0.00 0.00 68 1007.3
20260510000951 65 301 5.0 12.0 0.00 0.00 0.00 69 1007.3
20260510000448 66 342 5.0 12.0 0.00 0.00 0.00 68 1007.3
20260509235948 66 338 6.0 13.0 0.00 0.00 0.00 68 1007.3
20260509235445 66 314 6.0 13.0 0.00 0.00 0.00 66 1007.3
20260509234944 67 319 5.0 12.0 0.00 0.00 0.00 66 1007.3
20260509234442 67 43 6.0 11.0 0.00 0.00 0.00 67 1007.3
20260509233443 67 326 6.0 12.0 0.00 0.00 0.00 67 1007.1
20260509232938 67 316 7.0 13.0 0.00 0.00 0.00 67 1007.1
20260509232435 67 337 7.0 13.0 0.00 0.00 0.00 66 1007.0
20260509231933 67 44 7.0 13.0 0.00 0.00 0.00 67 1007.0
20260509231429 67 309 6.0 13.0 0.00 0.00 0.00 65 1007.0
20260509230929 68 302 6.0 13.0 0.00 0.00 0.00 66 1007.0
20260509230432 67 330 6.0 14.0 0.00 0.00 0.00 66 1007.0
20260509225931 68 292 6.0 14.0 0.00 0.00 0.00 65 1007.0
20260509225426 67 308 6.0 13.0 0.00 0.00 0.00 66 1007.1
20260509224924 67 334 7.0 13.0 0.00 0.00 0.00 67 1007.1
20260509223922 67 306 7.0 15.0 0.00 0.00 0.00 66 1007.4
20260509223421 68 323 7.0 15.0 0.00 0.00 0.00 66 1007.4
20260509222918 67 297 7.0 13.0 0.00 0.00 0.00 66 1007.4
20260509222418 68 315 6.0 14.0 0.00 0.00 0.00 65 1007.5
20260509221915 67 322 7.0 16.0 0.00 0.00 0.00 66 1007.5
20260509220414 69 316 7.0 13.0 0.00 0.00 0.00 65 1007.5
20260509215913 69 340 7.0 14.0 0.00 0.00 0.00 64 1007.6
20260509214909 70 321 6.0 13.0 0.00 0.00 0.00 64 1007.6
20260509214406 69 324 7.0 13.0 0.00 0.00 0.00 65 1007.8
20260509213901 69 328 7.0 14.0 0.00 0.00 0.00 65 1007.8
20260509212858 69 322 6.0 14.0 0.00 0.00 0.00 63 1007.7
20260509211858 70 318 6.0 12.0 0.00 0.00 0.00 63 1007.7
20260509211358 70 281 6.0 12.0 0.00 0.00 0.00 63 1007.9
20260509210357 71 310 6.0 13.0 0.00 0.00 0.00 62 1007.9
20260509205852 71 321 6.0 13.0 0.00 0.00 0.00 62 1008.0
20260509205353 70 286 6.0 12.0 0.00 0.00 0.00 63 1008.0
20260509204851 70 323 6.0 12.0 0.00 0.00 0.00 63 1008.0
20260509204347 70 0 6.0 12.0 0.00 0.00 0.00 62 1008.0
20260509203344 71 0 5.0 10.0 0.00 0.00 0.00 62 1008.0
20260509202846 71 29 4.0 10.0 0.00 0.00 0.00 62 1008.1
20260509202344 71 326 4.0 10.0 0.00 0.00 0.00 63 1008.1
20260509201342 71 321 4.0 10.0 0.00 0.00 0.00 63 1008.3
20260509200840 71 311 4.0 10.0 0.00 0.00 0.00 63 1008.3
20260509200340 70 322 5.0 10.0 0.00 0.00 0.00 65 1008.3
20260509195837 71 327 4.0 10.0 0.00 0.00 0.00 63 1008.4
20260509195337 70 346 4.0 11.0 0.00 0.00 0.00 64 1008.4
20260509194835 69 329 5.0 11.0 0.00 0.00 0.00 66 1008.4
20260509193828 68 342 5.0 11.0 0.00 0.00 0.00 67 1008.6
20260509193327 68 327 4.0 10.0 0.00 0.00 0.00 68 1008.6
20260509192320 67 327 5.0 12.0 0.00 0.00 0.00 70 1008.6
20260509191820 67 311 6.0 12.0 0.00 0.00 0.00 69 1008.6
20260509191320 67 340 7.0 12.0 0.00 0.00 0.00 69 1008.7
20260509190318 68 345 6.0 10.0 0.00 0.00 0.00 67 1008.7
20260509185812 67 348 6.0 11.0 0.00 0.00 0.00 67 1008.6
20260509185313 68 319 6.0 13.0 0.00 0.00 0.00 66 1008.6
20260509184814 68 319 5.0 13.0 0.00 0.00 0.00 67 1008.6
20260509184314 69 303 5.0 10.0 0.00 0.00 0.00 67 1008.6
20260509183809 70 313 5.0 9.0 0.00 0.00 0.00 65 1008.6
20260509183307 70 307 4.0 7.0 0.00 0.00 0.00 65 1008.6
20260509181757 72 317 3.0 8.0 0.00 0.00 0.00 63 1008.7
20260509181254 72 294 3.0 8.0 0.00 0.00 0.00 64 1009.0
20260509180249 73 323 2.0 7.0 0.00 0.00 0.00 62 1009.0
20260509175248 72 336 0.0 5.0 0.00 0.00 0.00 64 1009.0
20260509174751 72 9 0.0 5.0 0.00 0.00 0.00 64 1009.0
20260509174244 71 5 0.0 5.0 0.00 0.00 0.00 66 1009.0
20260509173741 70 5 0.0 4.0 0.00 0.00 0.00 67 1009.0
20260509173240 70 355 0.0 4.0 0.00 0.00 0.00 69 1009.0
20260509172740 69 5 0.0 3.0 0.00 0.00 0.00 71 1009.0
20260509172240 67 5 0.0 1.0 0.00 0.00 0.00 74 1009.0
20260509171742 66 59 0.0 1.0 0.00 0.00 0.00 76 1009.0
20260509171241 65 65 0.0 1.0 0.00 0.00 0.00 76 1009.1
20260509170739 65 65 0.0 0.0 0.00 0.00 0.00 77 1009.1
20260509170235 64 65 0.0 0.0 0.00 0.00 0.00 77 1009.1
20260509165738 63 65 0.0 0.0 0.00 0.00 0.00 79 1009.1
20260509165237 62 59 0.0 0.0 0.00 0.00 0.00 83 1009.1
20260509164732 61 58 0.0 0.0 0.00 0.00 0.00 85 1009.1
20260509164228 60 58 0.0 0.0 0.00 0.00 0.00 87 1009.2
20260509163225 58 57 0.0 0.0 0.00 0.00 0.00 92 1009.2
20260509162723 57 0 0.0 0.0 0.00 0.00 0.00 94 1009.4
20260509162219 56 0 0.0 0.0 0.00 0.00 0.00 95 1009.4
20260509161213 55 355 0.0 0.0 0.00 0.00 0.00 96 1009.3
20260509160712 54 355 0.0 0.0 0.00 0.00 0.00 96 1009.3
20260509160206 54 346 0.0 0.0 0.00 0.00 0.00 97 1009.3
20260509155704 53 329 0.0 0.0 0.00 0.00 0.00 96 1009.3
20260509155204 53 329 0.0 0.0 0.00 0.00 0.00 96 1009.3
20260509154209 52 329 0.0 0.0 0.00 0.00 0.00 97 1009.5
20260509153704 52 329 0.0 0.0 0.00 0.00 0.00 96 1009.5